EW5922 Weather Reports


Display with metric or nautical units.
time (UTC)temp
F
wind
direction
speed
MPH
gust
MPH
rain 1hr
in
rain 24hr
in
rain mn
in
humidity
%
barometer
mb
20260504021107 54 221 1.0 3.0 0.00 0.00 0.00 45 1013.1
20260504020607 54 183 1.0 3.0 0.00 0.00 0.00 45 1013.4
20260504015554 54 253 0.0 3.0 0.00 0.00 0.00 45 1013.3
20260504015056 55 278 1.0 2.0 0.00 0.00 0.00 44 1013.2
20260504013542 54 235 0.0 1.0 0.00 0.00 0.00 44 1013.2
20260504013035 54 239 1.0 1.0 0.00 0.00 0.00 45 1013.2
20260504012530 55 238 0.0 1.0 0.00 0.00 0.00 44 1013.1
20260504012031 55 245 0.0 1.0 0.00 0.00 0.00 43 1012.9
20260504011523 55 231 0.0 2.0 0.00 0.00 0.00 42 1012.8
20260504011018 56 234 0.0 3.0 0.00 0.00 0.00 41 1012.9
20260504010518 56 185 2.0 3.0 0.00 0.00 0.00 41 1012.9
20260504010011 56 256 1.0 3.0 0.00 0.00 0.00 40 1012.6
20260504005007 56 229 0.0 2.0 0.00 0.00 0.00 41 1012.3
20260504004459 57 238 0.0 3.0 0.00 0.00 0.00 40 1012.3
20260504003955 57 240 0.0 3.0 0.00 0.00 0.00 39 1012.5
20260504003455 58 238 1.0 3.0 0.00 0.00 0.00 38 1012.5
20260504001955 58 232 0.0 6.0 0.00 0.00 0.00 38 1012.1
20260504001454 58 267 3.0 6.0 0.00 0.00 0.00 37 1011.8
20260504000953 58 261 2.0 3.0 0.00 0.00 0.00 37 1011.9
20260504000455 58 205 1.0 6.0 0.00 0.00 0.00 37 1011.6
20260503235954 58 303 0.0 6.0 0.00 0.00 0.00 37 1011.7
20260503234947 58 217 1.0 4.0 0.00 0.00 0.00 36 1011.9
20260503234442 59 240 0.0 7.0 0.00 0.00 0.00 35 1011.9
20260503233942 59 255 1.0 7.0 0.00 0.00 0.00 35 1011.7
20260503232930 60 257 2.0 8.0 0.00 0.00 0.00 33 1011.6
20260503232430 60 221 3.0 8.0 0.00 0.00 0.00 33 1011.5
20260503231924 60 239 2.0 10.0 0.00 0.00 0.00 34 1011.6
20260503231418 60 261 2.0 10.0 0.00 0.00 0.00 33 1011.4
20260503230919 60 330 1.0 6.0 0.00 0.00 0.00 33 1011.5
20260503230411 61 232 2.0 8.0 0.00 0.00 0.00 33 1011.4
20260503225906 61 272 2.0 8.0 0.00 0.00 0.00 33 1011.5
20260503225406 61 259 4.0 8.0 0.00 0.00 0.00 33 1011.3
20260503224407 61 175 4.0 8.0 0.00 0.00 0.00 32 1011.1
20260503223906 62 269 4.0 8.0 0.00 0.00 0.00 32 1011.3
20260503223406 61 233 1.0 9.0 0.00 0.00 0.00 33 1011.3
20260503222905 62 236 5.0 9.0 0.00 0.00 0.00 31 1011.4
20260503222407 62 243 3.0 9.0 0.00 0.00 0.00 32 1011.3
20260503221406 62 279 4.0 10.0 0.00 0.00 0.00 31 1011.3
20260503220408 62 259 1.0 9.0 0.00 0.00 0.00 30 1011.2
20260503215907 62 235 3.0 11.0 0.00 0.00 0.00 31 1011.4
20260503215407 62 235 6.0 11.0 0.00 0.00 0.00 30 1011.2
20260503214905 62 247 2.0 14.0 0.00 0.00 0.00 31 1011.2
20260503214406 62 260 4.0 14.0 0.00 0.00 0.00 30 1011.1
20260503213906 63 246 9.0 14.0 0.00 0.00 0.00 30 1011.1
20260503213407 63 226 2.0 9.0 0.00 0.00 0.00 30 1011.2
20260503212907 63 237 2.0 9.0 0.00 0.00 0.00 29 1011.3
20260503212407 62 236 1.0 9.0 0.00 0.00 0.00 30 1011.1
20260503211908 62 264 6.0 9.0 0.00 0.00 0.00 29 1011.2
20260503211406 62 303 2.0 15.0 0.00 0.00 0.00 30 1011.1
20260503210907 62 275 6.0 15.0 0.00 0.00 0.00 31 1011.2
20260503210407 62 250 4.0 14.0 0.00 0.00 0.00 31 1011.2
20260503204900 62 228 3.0 14.0 0.00 0.00 0.00 30 1011.1
20260503204355 60 351 4.0 13.0 0.00 0.00 0.00 31 1010.7
20260503203855 60 264 4.0 11.0 0.00 0.00 0.00 31 1010.9
20260503203355 61 230 1.0 13.0 0.00 0.00 0.00 31 1010.9
20260503202855 62 215 6.0 14.0 0.00 0.00 0.00 30 1011.3
20260503202356 61 358 6.0 11.0 0.00 0.00 0.00 30 1011.1
20260503201854 60 258 4.0 13.0 0.00 0.00 0.00 32 1011.3
20260503201353 62 268 4.0 13.0 0.00 0.00 0.00 31 1011.1
20260503200854 62 264 2.0 14.0 0.00 0.00 0.00 32 1011.3
20260503200356 62 235 8.0 14.0 0.00 0.00 0.00 31 1011.2
20260503195856 61 311 4.0 15.0 0.00 0.00 0.00 31 1011.2
20260503195356 62 286 9.0 15.0 0.00 0.00 0.00 31 1011.3
20260503194855 61 285 7.0 10.0 0.00 0.00 0.00 31 1011.3
20260503194354 61 133 4.0 13.0 0.00 0.00 0.00 33 1011.7
20260503193354 60 266 4.0 14.0 0.00 0.00 0.00 34 1011.6
20260503192856 60 246 5.0 14.0 0.00 0.00 0.00 33 1011.6
20260503192354 61 314 6.0 10.0 0.00 0.00 0.00 33 1011.9
20260503191348 59 255 5.0 17.0 0.00 0.00 0.00 34 1012.0
20260503190342 59 237 4.0 13.0 0.00 0.00 0.00 33 1011.5
20260503185835 59 233 6.0 17.0 0.00 0.00 0.00 33 1011.8
20260503185318 59 292 4.0 17.0 0.00 0.00 0.00 35 1011.8
20260503184811 59 242 4.0 18.0 0.00 0.00 0.00 35 1012.0
20260503184306 59 231 11.0 18.0 0.00 0.00 0.00 35 1012.0
20260503183806 58 287 3.0 14.0 0.00 0.00 0.00 38 1012.0
20260503183306 57 211 6.0 14.0 0.00 0.00 0.00 37 1012.1
20260503182806 59 239 4.0 11.0 0.00 0.00 0.00 36 1012.2
20260503182306 57 235 2.0 9.0 0.00 0.00 0.00 37 1012.3
20260503181806 58 277 3.0 11.0 0.00 0.00 0.00 37 1012.2
20260503180806 57 346 4.0 9.0 0.00 0.00 0.00 38 1012.1
20260503180306 57 250 2.0 10.0 0.00 0.00 0.00 38 1012.4
20260503175259 56 225 1.0 15.0 0.00 0.00 0.00 40 1012.2
20260503174754 56 331 6.0 15.0 0.00 0.00 0.00 39 1012.2
20260503173747 55 352 4.0 16.0 0.00 0.00 0.00 40 1012.4
20260503173242 55 222 2.0 15.0 0.00 0.00 0.00 40 1012.4
20260503172242 55 175 3.0 13.0 0.00 0.00 0.00 40 1012.5
20260503171742 56 233 4.0 9.0 0.00 0.00 0.00 42 1012.5
20260503170743 55 271 4.0 11.0 0.00 0.00 0.00 42 1012.5
20260503170236 55 275 2.0 11.0 0.00 0.00 0.00 41 1012.6
20260503150730 52 294 5.0 11.0 0.00 0.00 0.00 45 1013.2
20260503150229 51 244 2.0 11.0 0.00 0.00 0.00 46 1013.0
20260503140206 50 224 3.0 13.0 0.00 0.00 0.00 50 1013.2
20260503131154 49 327 1.0 13.0 0.00 0.00 0.00 56 1012.8
20260503130654 49 21 7.0 13.0 0.00 0.00 0.00 55 1013.1
20260503130154 48 258 0.0 11.0 0.00 0.00 0.00 56 1013.2
20260503110606 46 238 2.0 7.0 0.00 0.00 0.00 59 1012.7
20260503110106 46 275 2.0 7.0 0.00 0.00 0.00 59 1012.6
20260503081518 48 283 1.0 3.0 0.00 0.00 0.00 55 1011.0
20260503081017 48 234 0.0 4.0 0.00 0.00 0.00 55 1011.4
20260503080516 48 325 1.0 4.0 0.00 0.00 0.00 54 1011.1
20260503072517 49 298 2.0 6.0 0.00 0.00 0.00 52 1011.0
20260503072017 49 329 1.0 6.0 0.00 0.00 0.00 51 1011.1
20260503071517 49 253 2.0 6.0 0.00 0.00 0.00 51 1011.1
20260503071017 49 245 2.0 6.0 0.00 0.00 0.00 50 1011.0
20260503070518 49 68 2.0 6.0 0.00 0.00 0.00 50 1011.0
20260503054953 51 284 0.0 8.0 0.00 0.00 0.00 48 1011.2
20260503054453 51 274 2.0 8.0 0.00 0.00 0.00 47 1011.2
20260503053953 51 255 2.0 7.0 0.00 0.00 0.00 47 1011.4
20260503053453 51 44 1.0 8.0 0.00 0.00 0.00 47 1011.5
20260503052953 51 273 2.0 8.0 0.00 0.00 0.00 47 1011.3
20260503052454 51 334 3.0 8.0 0.00 0.00 0.00 46 1011.4
20260503051954 51 266 6.0 8.0 0.00 0.00 0.00 46 1011.5
20260503051453 52 303 2.0 7.0 0.00 0.00 0.00 46 1011.3
20260503050952 52 141 1.0 7.0 0.00 0.00 0.00 46 1011.4
20260503050453 52 330 2.0 7.0 0.00 0.00 0.00 46 1011.5
20260503045453 52 178 1.0 6.0 0.00 0.00 0.00 46 1011.7
20260503044953 52 324 2.0 8.0 0.00 0.00 0.00 45 1011.8
20260503043941 52 318 3.0 7.0 0.00 0.00 0.00 46 1011.7
20260503043441 52 347 4.0 6.0 0.00 0.00 0.00 46 1011.6
20260503042941 52 329 3.0 4.0 0.00 0.00 0.00 47 1011.9
20260503041941 52 331 2.0 3.0 0.00 0.00 0.00 46 1011.7
20260503041440 52 257 1.0 3.0 0.00 0.00 0.00 46 1011.7
20260503040942 52 265 1.0 4.0 0.00 0.00 0.00 46 1011.8
20260503040442 53 279 2.0 4.0 0.00 0.00 0.00 46 1011.9
20260503035441 53 270 2.0 4.0 0.00 0.00 0.00 46 1011.9
20260503034941 53 293 2.0 4.0 0.00 0.00 0.00 45 1011.6
20260503034441 53 266 1.0 6.0 0.00 0.00 0.00 45 1011.6
20260503033941 53 271 3.0 6.0 0.00 0.00 0.00 45 1011.7
20260503033442 53 273 1.0 6.0 0.00 0.00 0.00 45 1011.5
20260503032941 53 262 1.0 6.0 0.00 0.00 0.00 44 1011.6
20260503032429 53 326 1.0 4.0 0.00 0.00 0.00 45 1011.6
20260503031428 53 101 1.0 3.0 0.00 0.00 0.00 45 1012.0
20260503030917 53 229 0.0 4.0 0.00 0.00 0.00 45 1011.5
20260503030417 53 315 1.0 4.0 0.00 0.00 0.00 45 1011.7
20260503025918 53 224 0.0 4.0 0.00 0.00 0.00 44 1011.6
20260503025419 54 317 1.0 3.0 0.00 0.00 0.00 45 1011.6
20260503024919 54 267 0.0 4.0 0.00 0.00 0.00 44 1011.8
20260503023917 55 233 1.0 6.0 0.00 0.00 0.00 43 1011.8
20260503023417 55 316 3.0 6.0 0.00 0.00 0.00 42 1011.8
20260503022917 55 355 1.0 4.0 0.00 0.00 0.00 43 1011.5
20260503022417 55 292 2.0 4.0 0.00 0.00 0.00 43 1011.4
20260503021917 55 239 1.0 4.0 0.00 0.00 0.00 43 1011.4
20260503021418 55 263 1.0 6.0 0.00 0.00 0.00 43 1011.8